User: anonymous   Login
Location: Campillo
(40.8621°N, 4.2488°W)
Time: 01:08:15
(UTC+00:00)
Language:

Cosmos 1862 - Orbit

View from above orbital plane
View from above orbital plane
View from above satellite
View from above satellite

Ground track
Ground track

The orbit data is extracted from the following two-line orbital elements,

1 18152U 87055A   21208.58238348  .00000982  00000-0  64028-4 0  9999
2 18152  82.4947 273.0430 0014324 121.5780 238.6848 15.06692307834519
Epoch (UTC): 27 July 2021 13:58:37
Eccentricity: 0.0014324
inclination: 82.4947°
perigee height: 536 km
apogee height: 556 km
right ascension of ascending node: 273.0430°
argument of perigee: 121.5780°
revolutions per day: 15.06692307
mean anomaly at epoch: 238.6848°
orbit number at epoch: 83451

The dashed part of the orbit path shows where the satellite is in the earth's shadow,  

DLR